N5ZKK Weather Reports


time (UTC)temp
F
wind
direction
speed
knots
gust
knots
rain 1hr
in
rain 24hr
in
rain mn
in
humidity
%
barometer
mb
20260510094528 66 0.0 0.0 0.00 0.00 0.00 99 1014.3
20260510093531 66 0.0 0.0 0.00 0.00 0.00 99 1014.3
20260510092533 67 0.0 0.0 0.00 0.00 0.00 99 1014.3
20260510092513 66 0 0.0 0.0 0.00 0.00 0.00 99 1012.9
20260510091517 67 0.0 0.0 0.00 0.00 0.00 99 1014.3
20260510090519 67 0.0 0.0 0.00 0.00 0.00 98 1014.3
20260510085521 67 0.0 0.0 0.00 0.00 0.00 97 1014.3
20260510085513 67 0 0.0 0.0 0.00 0.00 0.00 97 1012.8
20260510084523 68 0.0 0.0 0.00 0.00 0.00 97 1014.1
20260510083525 68 0.0 0.0 0.00 0.00 0.00 96 1014.1
20260510082527 68 0.0 0.0 0.00 0.00 0.00 96 1014.1
20260510082513 67 0 0.0 0.0 0.00 0.00 0.00 96 1012.7
20260510081523 68 0.0 0.0 0.00 0.00 0.00 96 1014.1
20260510080539 68 0.0 0.0 0.00 0.00 0.00 96 1014.3
20260510075515 68 0.0 0.0 0.00 0.00 0.00 96 1014.3
20260510075513 68 0 0.0 0.0 0.00 0.00 0.00 96 1012.9
20260510074518 68 0.0 0.0 0.00 0.00 0.00 96 1014.3
20260510073520 68 0.0 0.0 0.00 0.00 0.00 96 1014.3
20260510072522 68 0.0 0.0 0.00 0.00 0.00 97 1014.3
20260510072513 67 0 0.0 0.0 0.00 0.00 0.00 97 1012.9
20260510071524 68 0.0 0.0 0.00 0.00 0.00 97 1014.3
20260510070527 67 0.0 0.0 0.00 0.00 0.00 98 1014.3
20260510065529 66 0.0 0.0 0.00 0.00 0.00 99 1014.5
20260510065513 65 0 0.0 0.0 0.00 0.00 0.00 98 1013.2
20260510064531 66 0.0 0.0 0.00 0.00 0.00 98 1014.5
20260510063515 66 0.0 0.0 0.00 0.00 0.00 97 1014.5
20260510062518 66 0.0 0.0 0.00 0.00 0.00 97 1014.5
20260510062513 66 0 0.0 0.0 0.00 0.00 0.00 96 1013.2
20260510061519 67 0.0 0.0 0.00 0.00 0.00 96 1014.5
20260510060521 67 0.0 0.0 0.00 0.00 0.00 94 1014.5
20260510055523 68 0.0 0.0 0.00 0.00 0.00 93 1014.5
20260510055513 67 0 0.0 0.0 0.00 0.00 0.00 93 1012.9
20260510054525 68 0.0 0.0 0.00 0.00 0.00 93 1014.3
20260510053541 69 0.0 0.0 0.00 0.00 0.00 93 1014.3
20260510052537 69 0.0 0.0 0.00 0.00 0.00 92 1014.3
20260510052513 69 0 0.0 0.0 0.00 0.00 0.00 92 1012.7
20260510051533 69 0.0 0.0 0.00 0.00 0.00 91 1014.3
20260510050516 70 0.0 0.0 0.00 0.00 0.00 89 1014.3
20260510045519 71 0.0 0.0 0.00 0.00 0.00 89 1014.3
20260510045513 71 0 0.0 0.0 0.00 0.00 0.00 87 1012.4
20260510044520 72 0.0 0.0 0.00 0.00 0.00 86 1014.1
20260510043523 73 0.0 0.0 0.00 0.00 0.00 85 1014.1
20260510042524 73 0.0 0.0 0.00 0.00 0.00 84 1014.1
20260510042513 73 0 0.0 0.0 0.00 0.00 0.00 83 1012.1
20260510041526 74 0.0 0.0 0.00 0.00 0.00 83 1014.1
20260510040529 74 0.0 0.0 0.00 0.00 0.00 81 1014.0
20260510035531 75 0.0 0.0 0.00 0.00 0.00 80 1013.9
20260510035513 74 0 0.0 0.9 0.00 0.00 0.00 79 1011.7
20260510034516 75 0.0 0.0 0.00 0.00 0.00 79 1013.8
20260510033517 76 0.0 0.0 0.00 0.00 0.00 78 1013.8
20260510032640 76 0.0 0.0 0.00 0.00 0.00 77 1013.7
20260510032513 75 0 0.0 0.0 0.00 0.00 0.00 77 1011.3
20260510031522 76 0.0 0.0 0.00 0.00 0.00 77 1013.6
20260510030525 76 0.0 0.0 0.00 0.00 0.00 76 1013.3
20260510025521 75 0.0 0.0 0.00 0.00 0.00 76 1013.2
20260510025513 75 0 0.0 0.0 0.00 0.00 0.00 75 1010.9
20260510024517 75 0.0 0.0 0.00 0.00 0.00 75 1013.0
20260510023552 75 0.0 0.0 0.00 0.00 0.00 74 1012.9
20260510022516 76 0.0 0.0 0.00 0.00 0.00 74 1012.8
20260510022513 76 0 0.0 0.0 0.00 0.00 0.00 72 1010.3
20260510021518 77 0.0 0.0 0.00 0.00 0.00 72 1012.7
20260510020541 78 0.0 0.0 0.00 0.00 0.00 67 1012.4
20260510015523 79 0.0 0.0 0.00 0.00 0.00 65 1012.2
20260510015513 79 0 0.0 0.0 0.00 0.00 0.00 63 1009.4
20260510014525 81 0.0 0.0 0.00 0.00 0.00 62 1011.9
20260510013528 82 0.0 0.0 0.00 0.00 0.00 58 1011.8
20260510012530 84 0.0 0.0 0.00 0.00 0.00 54 1011.7
20260510012513 85 0 0.0 0.0 0.00 0.00 0.00 53 1008.4
20260510011552 87 0.0 0.0 0.00 0.00 0.00 51 1011.7
20260510010536 90 0.0 0.0 0.00 0.00 0.00 47 1011.7
20260510005519 92 0.0 0.0 0.00 0.00 0.00 46 1011.4
20260510005513 94 0 0.0 0.0 0.00 0.00 0.00 42 1007.1
20260510004521 96 259 0.0 0.9 0.00 0.00 0.00 40 1011.3
20260510003522 97 179 0.9 1.7 0.00 0.00 0.00 39 1011.3
20260510002525 99 203 0.0 1.7 0.00 0.00 0.00 38 1011.3
20260510002513 98 180 0.0 0.9 0.00 0.00 0.00 39 1006.6
20260510001521 100 225 0.0 1.7 0.00 0.00 0.00 38 1011.3
20260510000517 101 258 0.0 1.7 0.00 0.00 0.00 37 1011.3
20260509235531 100 171 0.9 2.6 0.00 0.00 0.00 36 1011.2
20260509235513 100 200 0.9 1.7 0.00 0.00 0.00 37 1006.3
20260509234515 100 187 0.9 2.6 0.00 0.00 0.00 37 1011.1
20260509233517 98 176 0.9 3.5 0.00 0.00 0.00 39 1011.1
20260509232519 96 182 2.6 5.2 0.00 0.00 0.00 40 1011.1
20260509232513 96 152 2.6 5.2 0.00 0.00 0.00 39 1006.6
20260509231521 97 203 2.6 4.3 0.00 0.00 0.00 40 1011.1
20260509230523 97 226 1.7 4.3 0.00 0.00 0.00 39 1011.2
20260509225526 97 250 1.7 4.3 0.00 0.00 0.00 38 1011.3
20260509225513 96 70 0.0 1.7 0.00 0.00 0.00 38 1006.8
20260509224548 97 265 2.6 4.3 0.00 0.00 0.00 39 1011.3
20260509223530 96 228 2.6 4.3 0.00 0.00 0.00 40 1011.2
20260509222552 94 194 1.7 3.5 0.00 0.00 0.00 41 1011.2
20260509222513 93 129 1.7 3.5 0.00 0.00 0.00 41 1007.1
20260509221516 95 217 2.6 4.3 0.00 0.00 0.00 41 1011.3
20260509220519 95 311 1.7 3.5 0.00 0.00 0.00 42 1011.2
20260509215541 95 332 2.6 4.3 0.00 0.00 0.00 42 1011.3
20260509215513 95 303 1.7 3.5 0.00 0.00 0.00 41 1006.9
20260509214523 96 263 2.6 5.2 0.00 0.00 0.00 42 1011.4
20260509213519 93 352 2.6 3.5 0.00 0.00 0.00 45 1011.6
20260509212516 94 250 1.7 2.6 0.00 0.00 0.00 45 1011.7
20260509212513 93 49 1.7 3.5 0.00 0.00 0.00 44 1007.4
20260509211610 94 23 3.5 6.1 0.00 0.00 0.00 44 1011.7
20260509210532 92 331 0.0 1.7 0.00 0.00 0.00 47 1011.8
20260509205516 96 252 2.6 3.5 0.00 0.00 0.00 42 1012.0
20260509205513 92 227 0.9 2.6 0.00 0.00 0.00 46 1007.9
20260509204538 93 246 1.7 3.5 0.00 0.00 0.00 46 1012.4
20260509203540 94 265 2.6 4.3 0.00 0.00 0.00 45 1012.5
20260509202522 92 80 1.7 3.5 0.00 0.00 0.00 49 1012.6
20260509202513 92 27 1.7 3.5 0.00 0.00 0.00 47 1008.7
20260509201525 93 95 1.7 2.6 0.00 0.00 0.00 45 1012.8
20260509200527 94 33 2.6 4.3 0.00 0.00 0.00 43 1013.0
20260509195529 92 181 2.6 3.5 0.00 0.00 0.00 47 1013.0
20260509195513 93 193 3.5 5.2 0.00 0.00 0.00 42 1008.8
20260509194531 94 236 3.5 6.1 0.00 0.00 0.00 44 1013.1
20260509193533 93 261 3.5 7.0 0.00 0.00 0.00 48 1013.3
20260509192517 91 25 2.6 4.3 0.00 0.00 0.00 52 1013.3
20260509192513 93 317 1.7 4.3 0.00 0.00 0.00 48 1009.1
20260509191519 93 275 3.5 7.8 0.00 0.00 0.00 50 1013.3
20260509190520 91 125 2.6 6.1 0.00 0.00 0.00 50 1013.6
20260509185516 92 290 4.3 7.0 0.00 0.00 0.00 51 1013.8
20260509185513 92 251 3.5 5.2 0.00 0.00 0.00 51 1009.6
20260509184544 93 252 4.3 6.1 0.00 0.00 0.00 51 1013.8
20260509183526 89 230 2.6 4.3 0.00 0.00 0.00 56 1013.9
20260509182529 89 203 1.7 4.3 0.00 0.00 0.00 57 1014.1
20260509182513 89 239 1.7 3.5 0.00 0.00 0.00 54 1010.6
20260509181531 88 206 2.6 5.2 0.00 0.00 0.00 58 1014.3
20260509180533 90 109 2.6 5.2 0.00 0.00 0.00 55 1014.5
20260509175516 88 141 2.6 5.2 0.00 0.00 0.00 59 1014.5
20260509175513 86 171 3.5 5.2 0.00 0.00 0.00 60 1011.1
20260509174519 86 201 3.5 6.1 0.00 0.00 0.00 64 1014.8
20260509173521 87 237 3.5 5.2 0.00 0.00 0.00 64 1014.9
20260509172523 86 165 4.3 5.2 0.00 0.00 0.00 65 1014.9
20260509172513 85 138 2.6 4.3 0.00 0.00 0.00 66 1011.6
20260509171525 85 223 4.3 7.0 0.00 0.00 0.00 68 1014.9
20260509170527 84 161 2.6 5.2 0.00 0.00 0.00 68 1015.1
20260509165610 85 97 2.6 4.3 0.00 0.00 0.00 68 1015.2
20260509165513 83 165 1.7 3.5 0.00 0.00 0.00 70 1012.0
20260509164606 83 223 2.6 4.3 0.00 0.00 0.00 73 1015.1
20260509163516 82 213 3.5 6.1 0.00 0.00 0.00 74 1015.3
20260509162518 81 144 3.5 6.1 0.00 0.00 0.00 76 1015.4
20260509162513 80 171 2.6 5.2 0.00 0.00 0.00 77 1012.6
20260509161521 79 151 3.5 7.0 0.00 0.00 0.00 79 1015.4
20260509160523 80 174 4.3 7.0 0.00 0.00 0.00 78 1015.1
20260509155546 78 96 2.6 4.3 0.00 0.00 0.00 82 1015.3
20260509155513 78 99 2.6 4.3 0.00 0.00 0.00 82 1012.7
20260509154548 78 143 3.5 7.0 0.00 0.00 0.00 82 1015.1
20260509153530 78 74 2.6 5.2 0.00 0.00 0.00 82 1014.9
20260509152532 78 145 3.5 7.0 0.00 0.00 0.00 82 1014.8
20260509152513 79 129 3.5 4.3 0.00 0.00 0.00 78 1011.9
20260509151516 79 128 2.6 4.3 0.00 0.00 0.00 79 1014.7
20260509150518 81 208 2.6 3.5 0.00 0.00 0.00 75 1014.5
20260509145540 78 0.0 0.0 0.00 0.00 0.00 81 1014.7
20260509145513 76 58 0.9 2.6 0.00 0.00 0.00 84 1012.4
20260509144523 74 146 2.6 3.5 0.00 0.00 0.00 87 1014.7
20260509143525 74 219 2.6 5.2 0.00 0.00 0.00 88 1014.8
20260509142527 73 177 2.6 4.3 0.00 0.00 0.00 89 1014.7
20260509142513 72 172 0.9 2.6 0.00 0.00 0.00 89 1012.5
20260509141529 72 187 2.6 4.3 0.00 0.00 0.00 91 1014.5
20260509140525 71 0.0 0.0 0.00 0.00 0.00 93 1015.2
20260509135515 71 40 0.9 2.6 0.00 0.00 0.00 94 1015.4
20260509135513 70 11 0.9 2.6 0.00 0.00 0.00 95 1013.6
20260509134517 70 343 2.6 4.3 0.00 0.00 0.00 96 1015.3
20260509133520 71 15 0.9 2.6 0.00 0.00 0.00 96 1015.1
20260509132522 70 0.0 0.0 0.00 0.00 0.00 98 1014.9
20260509132513 69 0 0.0 0.0 0.00 0.00 0.00 98 1013.2
20260509131524 69 232 0.9 1.7 0.00 0.00 0.00 99 1014.9
20260509130547 69 0.0 0.0 0.00 0.00 0.00 99 1014.9
20260509125529 68 359 0.9 2.6 0.00 0.00 0.00 99 1014.8
20260509125513 68 24 0.9 3.5 0.00 0.00 0.00 99 1013.3
20260509124531 68 0.0 2.6 0.00 0.00 0.00 99 1015.0
20260509123515 68 59 0.9 2.6 0.00 0.00 0.00 99 1015.1
20260509122518 68 0.0 0.0 0.00 0.00 0.00 99 1015.0
20260509122513 67 202 0.0 0.9 0.00 0.00 0.00 99 1013.4
20260509121520 68 38 0.9 2.6 0.00 0.00 0.00 99 1014.8
20260509120522 68 27 1.7 4.3 0.00 0.00 0.00 99 1014.5
20260509115545 68 27 2.6 5.2 0.00 0.00 0.00 99 1014.7
20260509115513 67 29 2.6 4.3 0.00 0.00 0.00 99 1013.2
20260509114526 68 11 4.3 7.8 0.00 0.00 0.00 99 1014.9
20260509113549 68 23 3.5 4.3 0.00 0.00 0.00 99 1015.0
20260509112546 68 22 4.3 7.0 0.00 0.00 0.00 99 1015.0
20260509112513 68 29 4.3 7.0 0.00 0.00 0.00 99 1013.5
20260509111516 68 17 5.2 7.0 0.00 0.00 0.00 99 1015.1
20260509110519 68 341 4.3 7.0 0.00 0.00 0.00 99 1015.0
20260509105521 68 0.0 0.0 0.00 0.00 0.00 99 1014.1
20260509105513 67 0 0.0 0.0 0.00 0.00 0.00 99 1012.6
20260509104543 68 0.0 0.0 0.00 0.00 0.00 99 1013.9
20260509103525 68 0.0 0.0 0.00 0.00 0.00 99 1013.9
20260509102528 68 0.0 0.0 0.00 0.00 0.00 99 1013.9
20260509102513 67 0 0.0 0.0 0.00 0.00 0.00 99 1012.3
20260509101550 68 0.0 0.0 0.00 0.00 0.00 99 1013.8
20260509100552 68 0.0 0.0 0.00 0.00 0.00 99 1013.6
20260509095517 68 0.0 0.0 0.00 0.00 0.00 99 1013.6
20260509095513 67 0 0.0 0.0 0.00 0.00 0.00 99 1012.1